COSMOS 2251 DEB, 34006

Orbit data source: Space-Track

COSMOS 2251 DEB, 34006 is space debris in LEO originally from a launch on Wed, 16 Jun 1993 UTC launched from the Plesetsk Missile And Space Complex (PKMTR). The debris from Iridium 33, an American commercial communications satellite, has been tracked extensively since its accidental collision with the defunct Russian satellite Cosmos 2251 in 2009. This event, occurring at high speed in low Earth orbit (LEO), generated thousands of pieces of space debris, significantly increasing the risk of further collisions. The Iridium 33 debris cloud has impacted space traffic management and orbital debris mitigation strategies, making it a subject of ongoing study in space situational awareness.

Loading next visibility...
Identifier
34006, 1993-036GR
Orbit
LEO
Country
Flag of CISCIS
Related business
Manufacturer
Unknown
Mission
Spacecraft
Bus & Motor
Unknown
Mass
Unknown
Launch date (UTC)
1993-06-16 (33 years ago)
Launch vehicle
Unknown
Launch site
Plesetsk Missile And Space Complex (PKMTR)
Object type
Payload
Rocket body
Debris
Shape & HBR
Unknown shape, 0.1 m
Radar Cross Section
Small (<0.1 m²)

Expand to show TLE details & history
Last TLE update: 14 hours ago

TLE from 14 hours ago
0 COSMOS 2251 DEB
1 34006U 93036GR  26072.66220451  .00040853  00000-0  29374-2 0  9994
2 34006  74.0520 318.9222 0011119 214.9818 174.6536 15.04004639900313
Epoch: 2026-03-13T15:53Z
TLE epoch observation values (Epoch: 2026-03-13T15:53:34.469Z)
Latitude
28.45265°
Longitude
-81.90686°
Altitude
565.498 km
Speed
7.577 km/s
True Right ascension
21h 51m 07s
True Declination
28° 18' 17"
Sunlit
Object was in daylight at epoch
Visualization orbit readout
Latitude
Unknown
Longitude
Unknown
Altitude
Unknown
Speed
Unknown
Apparent Right ascension
Unknown
Apparent Declination
Unknown
Sunlit
N/A
Visualization observer readout
Local Sidereal Time
10:19:43
Azimuth
Unknown
Elevation
Unknown
Doppler factor
Unknown
Orbital elements
Apogee altitude
559.816 km
Perigee altitude
544.405 km
Semi-major axis
6,930.248 km
Eccentricity
0.00111
Inclination
74.052°
RAAN
318.9222°
Arg. of periapsis
214.9818°
True anomaly
174.66546°
Mean anomaly
174.6536°
Eccentric anomaly
174.65953°
Mean motion
3.76201 °/min
Orbital period
95.69 mins
BSTAR
0.0029374
Loading maneuver chart data...
Computing Atmospheric mass density...

Documentation

Showing up to 5 results
|